Location: Baia Mare
(47.6567°N, 23.5850°E)
Time: 13:58:41
(UTC+02:00)

ISS - Pass Details

Date: 09 December 2018
Orbit: 401 x 408 km, 51.6° (Epoch: 16 December)

Event Time Altitude Azimuth Distance (km) Brightness Sun altitude
Rises 19:21:54 0° 289° (WNW) 2,318 1.0 -27.2°
Reaches altitude 10° 19:24:12 10° 276° (W) 1,455 -0.1 -27.6°
Enters shadow 19:25:36 19° 256° (WSW) 1,033 -1.0 -27.9°
